Theta_e
313 312 311 311 312 313 313 312 313 313 312 313 312 312 312 314 314 314 314 314 315 315 314 313 313 316 325 329 331 332 332 325 324 323 324 326 326 328 328 328 331 332 330 326
313 311 313 313 312 312 313 313 313 312 312 312 312 312 312 313 314 314 314 314 314 315 315 314 313 313 313 322 325 330 332 331 325 323 321 323 326 328 327 327 332 331 330 330
312 312 312 313 312 312 311 312 312 313 312 311 311 310 310 311 314 314 315 315 315 315 316 315 315 314 313 313 314 317 325 328 330 326 328 330 334 333 334 332 332 330 328 328
313 312 312 312 312 312 311 311 311 311 311 309 311 308 311 312 311 311 314 314 314 314 315 315 314 313 313 313 312 312 314 320 328 331 331 327 327 330 330 331 329 332 330 328
312 311 312 312 311 311 312 310 311 312 311 310 311 308 308 312 312 311 312 313 312 313 314 314 314 313 313 312 312 312 312 312 315 328 330 331 328 331 328 328 328 329 326 327
311 310 312 312 310 310 310 310 311 311 310 309 309 309 309 310 310 311 312 313 313 313 312 312 312 312 311 311 311 311 310 310 311 315 328 329 331 328 327 327 327 327 327 326
310 310 309 310 309 310 311 310 311 310 311 309 308 309 309 311 310 310 311 312 313 312 312 312 312 313 313 313 313 312 311 310 310 310 320 326 329 327 326 326 326 326 325 326
310 310 309 309 311 310 310 309 312 312 313 311 307 308 309 310 311 309 310 312 312 311 312 312 312 312 313 314 314 313 312 311 310 310 313 319 326 327 324 325 325 325 326 325
309 310 309 309 310 310 310 309 311 308 302 309 309 309 309 310 309 310 308 310 312 311 311 311 311 312 313 313 314 315 314 313 312 312 315 319 324 324 325 324 324 324 324 323
310 311 310 309 310 310 309 309 308 309 308 310 307 309 309 311 309 308 308 309 310 311 311 311 311 312 312 312 313 314 315 315 314 312 313 318 322 324 322 323 323 322 322 322
310 312 310 309 309 309 309 309 309 308 310 311 309 307 310 311 310 308 307 310 310 310 310 310 310 311 311 312 312 312 313 315 315 316 315 314 315 321 321 322 321 320 320 320
310 311 309 309 309 309 308 308 308 308 309 307 309 309 309 308 310 312 311 311 311 310 310 310 310 310 310 311 311 311 312 313 316 317 318 319 319 319 318 318 318 319 319 320
309 310 308 311 311 310 310 310 309 309 307 309 308 309 308 308 310 312 312 312 311 310 309 309 309 309 310 309 309 310 310 311 311 313 315 316 317 318 318 318 318 317 315 313
310 312 309 309 310 310 309 309 309 309 310 310 309 309 309 309 310 311 312 312 310 309 309 308 308 308 308 308 309 309 309 309 309 309 310 310 309 309 309 309 309 308 308 308
310 307 311 308 309 310 310 309 309 310 309 310 310 309 310 308 308 310 311 311 309 309 309 309 308 307 307 308 308 308 308 308 308 309 309 308 308 308 307 305 303 301 300 299
310 309 310 307 311 310 310 310 310 309 310 309 309 308 310 311 311 311 311 310 309 310 309 308 307 307 307 307 307 307 308 308 307 307 306 305 303 301 300 298 297 296 296 295
308 306 305 304 310 309 307 309 309 309 309 309 310 310 309 308 308 311 311 311 310 310 310 308 308 307 306 306 307 307 306 305 302 302 301 299 298 296 295 295 294 294 294 294
306 306 305 304 306 311 309 309 309 309 310 309 309 309 310 310 310 311 311 311 311 310 309 309 309 307 306 305 305 305 303 299 299 298 297 296 294 294 294 294 294 293 293 293
309 307 309 311 311 308 310 310 311 310 310 309 309 309 310 310 310 310 311 311 311 311 311 310 308 307 305 304 303 301 299 297 296 295 294 293 293 293 293 293 293 293 292 292
308 309 305 312 309 310 309 307 307 309 311 303 304 303 304 308 307 309 310 310 311 311 309 308 307 305 304 302 300 298 296 294 293 292 292 292 292 292 292 293 292 292 292 292
307 309 312 312 313 309 306 304 309 309 309 303 304 304 303 303 306 306 307 310 311 311 309 306 304 303 301 299 297 295 293 292 291 291 292 293 295 295 294 293 291 291 290 290
307 309 309 309 311 310 304 305 308 305 304 305 305 304 304 303 303 305 306 309 309 309 304 303 302 300 297 295 293 292 290 291 293 294 292 291 293 295 295 292 290 289 289 289
308 304 307 307 307 306 305 308 307 307 307 306 308 308 309 308 303 302 303 304 302 302 300 298 299 297 292 290 289 290 293 291 291 294 296 294 293 290 289 289 289 289 289 288
301 304 301 302 303 305 307 307 306 306 306 305 305 307 308 307 305 303 299 299 298 296 296 296 294 292 290 289 291 292 294 295 295 294 293 291 289 289 288 288 288 288 288 288
300 301 299 300 303 305 304 303 303 304 303 304 304 304 305 304 304 305 303 297 295 294 293 291 290 289 291 292 295 297 297 296 293 289 288 289 288 288 288 287 287 287 287 287
298 300 301 300 302 302 302 301 300 300 301 302 302 303 303 303 303 303 303 302 296 293 291 288 289 293 296 296 296 294 292 288 288 291 288 288 287 287 287 287 286 286 286 286
Wind_Speed
13 5 7 9 9 3 1 8 6 5 2 1 6 9 10 15 13 15 15 14 16 17 17 18 20 23 25 25 25 25 25 24 25 29 30 31 30 29 29 28 25 23 21 19
4 7 9 9 8 5 4 4 2 4 5 3 6 8 10 12 14 22 19 18 20 16 17 16 20 22 24 29 29 28 29 28 29 28 30 31 31 32 31 29 27 26 24 22
7 7 11 8 5 8 5 6 4 5 4 2 2 6 9 11 26 25 25 24 21 20 18 22 22 21 21 23 27 28 30 30 33 31 29 29 28 30 30 33 32 32 30 29
6 3 10 7 6 5 6 5 7 8 5 2 3 4 4 5 7 9 20 23 24 23 17 15 17 18 21 24 26 28 30 32 33 33 35 34 34 34 34 33 33 32 30 30
3 7 12 8 8 10 2 7 7 5 3 3 3 1 6 4 4 7 18 23 21 20 22 25 27 26 29 29 29 31 32 35 36 34 37 36 33 31 28 27 30 32 30 29
3 3 4 4 5 7 8 8 8 4 3 2 7 6 5 6 8 4 2 10 16 18 19 21 21 21 23 24 22 24 28 30 31 35 33 35 31 30 30 30 27 26 25 26
5 2 3 5 8 4 5 6 2 1 0 5 4 4 10 4 4 5 7 12 14 14 14 13 12 12 13 12 14 16 19 23 25 28 35 29 26 26 27 28 30 25 22 22
7 4 8 5 5 8 9 8 6 7 5 3 5 7 7 12 4 3 6 15 15 13 14 13 11 10 8 8 8 7 10 14 17 20 25 30 24 22 22 24 27 26 22 19
9 3 6 7 0 9 5 5 1 7 3 4 5 7 8 6 6 9 12 12 14 13 14 14 12 11 9 8 7 5 7 9 12 16 20 22 21 18 20 21 22 23 21 20
1 5 2 2 2 2 3 4 3 1 5 4 6 5 7 3 9 8 9 18 15 14 14 13 13 12 12 10 9 8 8 9 10 12 15 18 18 15 18 21 21 20 19 19
2 5 2 4 7 8 2 4 5 5 4 5 1 6 4 5 7 11 13 18 17 17 16 15 16 14 11 10 10 10 9 9 10 10 11 11 12 12 13 14 15 17 17 18
5 5 4 8 1 4 9 7 8 5 4 2 3 9 5 7 4 2 16 20 20 20 19 19 17 14 13 12 12 12 12 10 9 10 11 12 12 12 11 12 12 12 12 13
8 4 3 2 2 3 3 2 4 5 3 6 5 13 4 7 5 3 10 14 17 17 17 17 16 15 15 14 14 13 12 12 12 12 12 11 11 11 10 10 10 10 9 8
16 4 8 13 3 9 6 7 7 6 4 21 10 24 2 4 6 7 11 15 16 17 18 19 19 20 19 17 16 14 15 14 14 14 13 13 13 12 11 10 9 7 6 5
6 6 4 5 4 3 4 7 13 18 21 7 22 17 25 7 9 16 17 16 18 21 24 25 25 23 21 21 20 19 18 17 17 16 15 15 14 13 11 10 8 6 4 2
1 1 1 4 3 3 2 10 13 16 18 13 19 18 30 4 13 20 23 25 26 28 30 28 26 26 26 24 23 22 20 18 16 17 16 14 13 12 10 7 5 2 0 2
4 5 3 2 7 5 7 21 10 9 12 10 16 27 22 14 9 17 24 28 31 31 31 31 33 31 29 28 25 23 22 20 20 17 16 14 12 9 7 5 3 1 1 4
4 4 3 3 5 4 7 8 11 17 17 17 18 22 26 24 16 18 32 35 34 33 31 34 36 35 33 30 28 26 24 22 20 17 16 13 11 9 6 4 2 2 5 7
4 4 3 3 5 8 16 4 7 8 16 11 19 23 32 32 23 36 36 31 36 40 40 40 39 38 35 33 28 25 25 23 20 17 14 12 9 7 4 1 3 6 9 11
6 3 3 4 4 8 3 2 5 5 11 4 12 8 12 16 6 17 20 26 32 34 32 34 37 37 36 32 29 28 26 22 19 16 13 10 7 3 2 6 9 13 16 17
5 4 12 9 5 8 4 4 4 6 4 2 10 11 15 3 10 30 26 22 24 31 33 34 36 36 33 31 30 28 24 21 17 14 10 5 4 5 8 10 11 12 14 16
10 9 6 6 4 12 7 2 9 4 6 6 6 9 16 17 20 18 10 12 21 29 33 35 36 34 32 31 29 27 23 19 14 10 7 4 5 7 10 11 11 13 16 18
5 6 6 9 7 2 12 2 2 4 6 6 6 8 13 15 17 13 7 12 19 27 30 30 31 32 31 29 25 24 20 16 12 7 4 2 4 6 7 8 10 13 16 18
2 3 3 3 5 5 6 6 7 12 15 12 9 9 13 14 7 8 10 14 18 22 23 24 28 31 31 28 23 19 15 11 7 4 2 7 6 4 6 9 12 14 17 20
3 6 5 4 4 8 5 2 7 11 13 17 18 13 12 14 12 9 7 15 18 18 21 26 28 29 29 24 18 15 13 9 7 10 7 4 5 5 8 11 13 15 17 19
7 6 5 4 3 3 2 6 11 12 14 15 18 21 19 20 18 14 12 13 17 22 28 29 29 25 19 19 18 15 12 14 10 9 9 5 4 7 9 11 12 13 14 16
Wind_Direction
188 177 189 189 198 238 113 161 170 125 39 164 238 265 256 253 221 222 234 239 241 234 237 231 232 223 212 215 218 225 240 241 236 227 226 228 230 230 232 233 233 228 238 238
116 217 191 193 208 129 139 143 169 68 84 106 306 266 260 258 255 238 232 239 243 239 226 223 217 224 224 220 222 221 227 243 248 243 237 235 235 236 240 238 232 230 234 240
165 191 208 174 140 160 189 173 151 116 162 192 308 273 239 248 238 245 243 243 245 236 229 214 220 230 226 225 225 226 228 228 244 251 250 230 230 235 237 237 237 237 240 244
231 183 154 147 167 162 192 141 112 135 145 192 189 271 312 251 218 222 240 242 240 237 223 192 197 211 229 233 233 230 230 229 227 243 248 246 231 231 238 238 241 239 238 244
175 163 150 173 191 176 207 128 130 123 118 78 176 24 261 7 234 236 240 241 241 231 230 233 231 230 240 246 242 240 238 235 229 225 244 248 247 234 236 241 241 245 244 243
63 329 144 135 42 145 137 96 86 109 140 264 190 170 244 201 210 219 97 200 199 209 219 233 240 241 245 249 249 243 240 238 234 222 234 245 246 236 234 239 245 244 244 243
116 152 58 129 80 85 159 149 115 120 120 221 324 173 234 266 247 211 199 191 201 222 227 228 229 232 242 248 247 244 239 234 230 223 219 237 240 238 240 240 244 248 248 245
160 188 158 196 179 175 201 179 159 177 184 204 342 233 255 220 198 181 200 202 197 206 211 217 220 218 221 224 233 230 232 229 225 224 220 221 238 242 242 239 243 248 253 255
172 212 89 131 170 135 215 239 107 101 2 72 210 274 300 195 235 222 214 198 196 209 217 216 211 212 215 218 235 229 226 224 221 217 218 218 218 228 235 234 234 241 249 252
109 106 40 38 351 338 129 157 65 310 135 218 248 235 228 162 238 229 217 214 211 204 212 216 218 220 222 224 227 231 225 218 213 216 220 215 214 222 229 233 235 239 247 253
234 113 109 131 220 167 171 200 209 155 175 178 245 250 193 191 220 208 203 205 206 214 218 217 221 222 223 222 222 223 223 220 211 201 197 202 208 212 216 220 231 236 243 248
175 113 155 200 205 231 223 207 179 151 252 264 136 260 151 130 114 161 183 197 211 216 214 216 221 219 213 212 211 211 210 205 201 191 180 173 179 188 198 206 214 222 228 238
169 199 92 153 224 104 218 230 243 275 46 206 155 258 202 75 63 58 168 178 190 204 206 213 214 210 207 205 205 202 193 189 182 179 179 176 179 186 190 195 203 210 216 221
165 180 194 204 136 151 189 186 214 200 182 233 229 258 219 161 168 174 180 197 202 211 216 216 209 205 203 200 197 191 185 182 178 174 171 168 166 166 167 166 169 171 176 186
153 192 205 255 336 83 167 180 201 215 229 191 244 249 263 233 207 206 209 200 212 217 219 219 211 208 201 197 192 188 186 184 181 177 169 165 162 161 159 156 151 147 147 156
137 187 142 40 92 313 296 235 213 223 238 243 260 268 262 271 274 198 202 206 213 223 225 217 212 211 205 200 197 192 191 186 181 177 169 164 162 160 159 154 148 139 349 330
104 130 86 228 145 89 308 243 192 226 237 222 238 247 271 272 245 212 214 219 226 233 228 216 216 213 207 202 201 195 192 188 183 174 169 166 163 161 156 150 144 120 355 340
110 107 92 163 74 192 244 144 207 229 238 237 257 264 262 268 273 268 254 237 236 237 231 226 223 215 210 206 202 196 189 182 181 175 172 169 167 164 155 142 104 10 343 333
134 112 121 151 187 310 293 203 176 171 249 242 240 257 269 278 287 265 261 260 255 252 247 234 224 217 207 206 200 192 186 184 180 177 173 169 164 158 146 114 359 341 337 333
151 111 136 156 192 213 282 342 349 122 254 357 37 28 0 350 259 277 289 272 251 244 235 225 221 215 207 199 195 190 186 182 178 172 167 158 146 120 32 358 347 339 332 326
151 165 207 210 238 277 189 251 114 140 225 92 43 22 357 5 304 304 305 274 240 232 221 214 210 207 198 192 188 184 182 177 169 160 148 123 65 13 352 343 326 315 319 327
170 174 189 201 225 257 168 126 165 171 125 93 50 29 22 355 340 331 301 236 213 206 198 205 204 197 188 185 183 179 174 164 153 141 119 82 17 341 314 300 315 323 328 328
169 181 171 187 209 149 173 101 312 251 264 228 261 291 315 337 350 327 281 207 193 195 197 198 197 184 178 175 173 171 163 148 136 124 117 42 309 274 297 317 325 329 330 330
286 166 164 93 234 199 230 269 273 277 265 278 273 279 293 299 311 331 270 233 218 210 201 194 186 177 171 167 159 155 152 152 155 129 134 231 241 285 315 323 327 328 327 329
184 135 171 267 276 288 306 356 323 294 283 269 279 282 281 282 266 255 257 244 232 220 203 186 180 172 163 161 167 172 173 164 158 199 199 235 260 303 319 319 321 328 330 328
188 178 171 213 152 132 87 9 349 336 322 304 288 282 272 258 255 245 230 223 219 204 188 178 172 168 172 177 182 170 159 187 186 217 215 224 268 291 303 314 322 322 325 333